User: anonymous   Login
Location: Unspecified
(0.0000°N, 0.0000°E)
Time: 20:09:54
(UTC+00:00)
Language:

STUDSAT - Orbit

View from above orbital plane
View from above orbital plane
View from above satellite
View from above satellite

Ground track
Ground track

The orbit data is extracted from the following two-line orbital elements,

1 36796U 10035B   24114.19419430  .00008204  00000-0  77224-3 0  9992
2 36796  98.1751 335.3807 0012644  86.4234 273.8431 14.94075560747587
Epoch (UTC): 23 April 2024 04:39:38
Eccentricity: 0.0012644
inclination: 98.1751°
perigee height: 576 km
apogee height: 594 km
right ascension of ascending node: 335.3807°
argument of perigee: 86.4234°
revolutions per day: 14.94075560
mean anomaly at epoch: 273.8431°
orbit number at epoch: 74758

The dashed part of the orbit path shows where the satellite is in the earth's shadow,  

DLR